Location: Unspecified
(50.7693°N, 0.0000°E)
Time: 22:35:45
(UTC+00:00)

deb Explorer IX - Pass Details

Date: 25 June 2019
Orbit: 544 x 1107 km, 38.8° (Epoch: 12 October)

Event Time Altitude Azimuth Distance (km) Brightness Sun altitude
Rises 12:10:18 0° 213° (SSW) 3,665 ? 62.6°
Reaches altitude 10° 12:13:39 10° 196° (SSW) 2,803 ? 62.5°
Maximum altitude 12:18:18 19° 154° (SSE) 2,273 ? 62.5°
Drops below altitude 10° 12:23:10 10° 111° (ESE) 2,952 ? 62.3°
Sets 12:26:48 0° 96° (E) 3,924 ? 62.2°
